Terminal Aerodrome Forecast
Issued by NWS

Home | Current Version | Previous Version | Text Only | Print | Product List | Glossary On
Versions: 1 2 3 4 5 6 7 8 9 10 11 12 13 14 15 16 17 18 19 20 21 22 23 24 25 26 27 28 29 30 31 32 33 34 35 36 37 38 39 40 41 42 43 44 45 46 47 48 49 50
000
FTUS44 KHGX 040006 AAA
TAFUTS
TAF AMD
KUTS 040006Z 0400/0424 VRB03KT P6SM VCTS SCT045CB BKN100
     FM040200 19006KT P6SM SCT035 SCT250
      TEMPO 0409/0412 6SM BR SCT015
     FM041500 18006KT P6SM SCT025=

USA.gov is the U.S. government's official web portal to all federal, state and local government web resources and services.